Date_and_time,latitude,longitude,wind_speed,RelWindDirFrom,WindDirFrom,air_pressure,air_temperature,relative_humidity,Temp,platform_speed_wrt_ground,air_pressure_at_mean_sea_level,platform_orientation
2019-05-10 00:00,50.6304483333333,-96.980785,6.1,7.3,28,993.08,4.8,61,5.92,0.0,1020.58,327.5
2019-05-10 00:10,50.6304133333333,-96.9807866666667,6.7,7.5,27,993.06,4.9,60,6.17,0.0,1020.57,327.5
2019-05-10 00:20,50.6304766666667,-96.980775,5.8,6.9,23,993.04,4.5,65,6.02,0.0,1020.58,327.5
2019-05-10 00:30,50.6304283333333,-96.9807833333333,7.0,7.7,14,993.02,4.6,61,5.68,0.0,1020.55,327.5
2019-05-10 00:40,50.6304683333333,-96.9808033333333,7.4,8.5,20,993.00,5.0,61,5.65,0.0,1020.50,327.5
2019-05-10 00:50,50.630445,-96.9807716666667,7.1,7.8,17,992.96,5.2,58,5.51,0.0,1020.43,327.5
2019-05-10 01:00,50.6304433333333,-96.9807733333333,7.0,7.8,18,992.90,5.6,54,5.88,0.0,1020.38,270.0
2019-05-10 01:10,50.63044,-96.98077,7.0,8.0,20,992.85,5.5,56,5.80,0.0,1020.33,270.0
2019-05-10 01:20,50.63044,-96.9807666666667,7.2,7.8,20,992.79,5.8,52,5.72,0.0,1020.25,270.0
2019-05-10 01:30,50.630435,-96.9807716666667,7.4,9.8,17,992.71,5.5,54,5.73,0.0,1020.18,270.0
2019-05-10 01:40,50.630435,-96.980765,6.2,7.1,16,992.70,4.7,60,5.66,0.0,1020.22,270.0
2019-05-10 01:50,50.63044,-96.9807966666667,5.4,6.2,9,992.70,3.9,65,5.52,0.0,1020.25,270.0
2019-05-10 02:00,50.630455,-96.9807933333333,6.0,7.7,7,992.72,4.0,61,5.45,0.0,1020.27,299.2
2019-05-10 02:10,50.63045,-96.98079,6.1,7.2,5,992.77,4.5,57,5.47,0.0,1020.31,299.2
2019-05-10 02:20,50.63043,-96.98077,5.8,6.5,3,992.79,4.6,58,5.73,0.0,1020.32,299.2
2019-05-10 02:30,50.630435,-96.980775,5.8,6.6,4,992.81,4.8,54,6.09,0.0,1020.31,299.2
2019-05-10 02:40,50.63043,-96.9807716666667,5.6,6.7,353,992.83,4.8,55,5.96,0.0,1020.32,299.2
2019-05-10 02:50,50.6304316666667,-96.980765,5.4,6.5,354,992.84,4.9,54,5.85,0.0,1020.31,299.2
2019-05-10 03:00,50.630455,-96.9807716666667,6.4,7.8,356,992.84,5.1,52,5.84,0.0,1020.30,60.8
2019-05-10 03:10,50.6304533333333,-96.980775,6.0,8.0,353,992.81,4.9,53,5.81,0.0,1020.27,60.8
2019-05-10 03:20,50.630435,-96.9807683333333,5.4,6.7,353,992.73,5.3,49,5.75,0.0,1020.18,60.8
2019-05-10 03:30,50.6304366666667,-96.9807716666667,5.2,6.1,354,992.70,5.4,48,5.58,0.0,1020.18,60.8
2019-05-10 03:40,50.6304416666667,-96.9807716666667,4.1,5.4,352,992.72,5.4,48,5.44,0.0,1020.25,60.8
2019-05-10 03:50,50.6304433333333,-96.98077,3.1,4.1,356,992.74,5.3,48,5.29,0.0,1020.26,60.8
2019-05-10 04:00,50.630435,-96.9807616666667,1.7,3.2,355,992.72,5.1,52,5.26,0.0,1020.23,119.2
2019-05-10 04:10,50.6304416666667,-96.9807716666667,0.6,1.3,348,992.69,4.1,63,5.21,0.0,1020.25,119.2
2019-05-10 04:20,50.630445,-96.9807716666667,0.5,1.4,205,992.62,2.9,70,5.30,0.0,1020.22,119.2
2019-05-10 04:30,50.6304433333333,-96.98077,2.0,3.4,239,992.56,2.9,59,5.81,0.0,1020.16,119.2
2019-05-10 04:40,50.630445,-96.9807716666667,3.0,4.2,254,992.47,3.1,53,5.92,0.0,1020.06,119.2
2019-05-10 04:50,50.6304433333333,-96.9807716666667,2.1,2.9,245,992.45,2.8,53,5.82,0.0,1020.04,119.2
2019-05-10 05:00,50.6304366666667,-96.9807716666667,1.9,2.9,235,992.47,2.6,56,5.78,0.0,1020.08,131.6
2019-05-10 05:10,50.630435,-96.9807916666667,3.0,3.9,237,992.47,2.1,54,5.69,0.0,1020.09,131.6
2019-05-10 05:20,50.6304383333333,-96.980765,3.8,4.5,233,992.45,1.7,54,5.55,0.0,1020.08,131.6
2019-05-10 05:30,50.630445,-96.9807683333333,3.3,4.3,239,992.45,1.5,54,5.35,0.0,1020.09,131.6
2019-05-10 05:40,50.630435,-96.9807616666667,3.2,4.8,239,992.44,1.8,53,5.52,0.0,1020.07,131.6
2019-05-10 05:50,50.63043,-96.98076,3.9,5.4,247,992.43,1.8,52,5.90,0.0,1020.07,131.6
2019-05-10 06:00,50.6304316666667,-96.9807633333333,5.5,7.0,253,992.37,1.9,50,6.07,0.0,1020.05,152.4
2019-05-10 06:10,50.6304316666667,-96.9807666666667,5.7,6.7,251,992.32,2.1,49,6.20,0.0,1020.05,152.4
2019-05-10 06:20,50.6304333333333,-96.9807666666667,4.5,6.2,243,992.24,2.1,50,6.29,0.0,1019.97,152.4
2019-05-10 06:30,50.630435,-96.9807683333333,4.2,5.5,238,992.18,1.7,52,6.49,0.0,1019.92,152.4
2019-05-10 06:40,50.630435,-96.9807683333333,2.8,5.3,239,992.15,1.4,54,6.64,0.0,1019.91,152.4
2019-05-10 06:50,50.6304533333333,-96.980775,4.0,5.6,239,992.15,1.2,53,6.72,0.0,1019.94,152.4
2019-05-10 07:00,50.630435,-96.98071,4.5,5.9,242,992.13,1.0,54,6.77,0.0,1019.95,90.0
2019-05-10 07:10,50.6304433333333,-96.980755,3.3,5.5,241,992.07,1.0,56,6.81,0.0,1019.92,90.0
2019-05-10 07:20,50.6304416666667,-96.9807616666667,2.6,4.2,240,992.05,0.9,57,6.84,0.0,1019.90,90.0
2019-05-10 07:30,50.6304433333333,-96.980755,3.4,4.8,245,992.01,1.0,56,6.84,0.0,1019.85,90.0
2019-05-10 07:40,50.6304516666667,-96.9807733333333,2.8,4.1,238,991.97,0.9,57,6.85,0.0,1019.81,90.0
2019-05-10 07:50,50.6304483333333,-96.9807683333333,3.9,4.6,233,991.91,0.9,56,6.85,0.0,1019.74,90.0
2019-05-10 08:00,50.630445,-96.9807683333333,3.4,4.5,235,991.87,0.7,56,6.83,0.0,1019.71,48.3
2019-05-10 08:10,50.630445,-96.9807666666667,2.9,3.8,230,991.79,0.6,56,6.78,0.0,1019.63,48.3
2019-05-10 08:20,50.6304366666667,-96.9807616666667,3.0,3.7,240,991.79,0.5,55,6.73,0.0,1019.65,48.3
2019-05-10 08:30,50.63044,-96.9807683333333,2.8,3.9,242,991.78,0.6,56,6.70,0.0,1019.65,48.3
2019-05-10 08:40,50.6304483333333,-96.98078,3.3,4.3,240,991.68,0.8,54,6.66,0.0,1019.55,48.3
2019-05-10 08:50,50.6304483333333,-96.9807766666667,3.0,3.9,239,991.59,0.9,54,6.63,0.0,1019.46,48.3
2019-05-10 09:00,50.63045,-96.980765,1.9,2.9,232,991.55,0.6,63,6.60,0.0,1019.44,360.0
2019-05-10 09:10,50.630435,-96.98076,2.0,2.7,217,991.47,-0.5,68,6.59,0.0,1019.41,360.0
2019-05-10 09:20,50.6304533333333,-96.9807633333333,2.4,3.5,226,991.41,-0.5,61,6.57,0.0,1019.35,360.0
2019-05-10 09:30,50.6304516666667,-96.9807633333333,2.5,3.4,240,991.39,0.5,55,6.56,0.0,1019.28,360.0
2019-05-10 09:40,50.6303966666667,-96.9807333333333,2.1,3.2,233,991.38,0.5,58,6.52,0.0,1019.27,360.0
2019-05-10 09:50,50.6304366666667,-96.9807566666667,2.8,3.2,226,991.38,-0.1,61,6.47,0.0,1019.31,360.0
2019-05-10 10:00,50.6304383333333,-96.980755,2.4,3.1,221,991.36,-0.5,64,6.42,0.0,1019.31,281.8
2019-05-10 10:10,50.6304433333333,-96.98076,1.7,2.4,194,991.33,-1.4,70,6.37,0.0,1019.34,281.8
2019-05-10 10:20,50.630445,-96.9807583333333,1.4,1.9,186,991.28,-1.8,73,6.31,0.0,1019.30,281.8
2019-05-10 10:30,50.630445,-96.9807583333333,1.1,1.6,205,991.21,-1.6,70,6.24,0.0,1019.21,281.8
2019-05-10 10:40,50.630445,-96.98076,1.1,1.6,219,991.15,-1.2,80,6.18,0.0,1019.12,281.8
2019-05-10 10:50,50.6304433333333,-96.98076,1.3,1.7,210,991.10,-1.1,75,6.11,0.0,1019.08,281.8
2019-05-10 11:00,50.630445,-96.98076,2.4,3.1,178,991.06,-1.3,68,6.07,0.0,1019.11,90.0
2019-05-10 11:10,50.6304433333333,-96.98076,3.2,4.0,174,991.01,-1.3,70,6.14,0.0,1019.06,90.0
2019-05-10 11:20,50.6304433333333,-96.98076,4.2,4.7,171,991.00,-1.0,65,6.21,0.0,1018.98,90.0
2019-05-10 11:30,50.6304433333333,-96.9807616666667,4.2,4.7,172,991.01,-0.8,66,6.20,0.0,1018.98,90.0
2019-05-10 11:40,50.6304433333333,-96.9807616666667,3.9,4.6,182,991.01,-0.5,70,6.20,0.0,1018.99,90.0
2019-05-10 11:50,50.6304433333333,-96.9807633333333,4.3,4.9,178,990.98,-0.0,68,6.20,0.0,1018.96,90.0
2019-05-10 12:00,50.6304433333333,-96.9807633333333,4.2,4.7,181,990.96,0.3,71,6.18,0.0,1018.97,360.0
2019-05-10 12:10,50.6304583333333,-96.9807933333333,4.5,5.2,176,990.95,0.5,71,6.13,0.0,1018.97,360.0
2019-05-10 12:20,50.6304533333333,-96.9807833333333,4.1,4.6,174,990.96,0.8,70,6.08,0.0,1018.95,360.0
2019-05-10 12:30,50.630455,-96.9807833333333,4.8,5.6,178,990.94,0.9,67,6.04,0.0,1018.90,360.0
2019-05-10 12:40,50.63045,-96.9807783333333,5.3,6.0,180,990.89,1.3,62,6.03,0.0,1018.83,360.0
2019-05-10 12:50,50.6304483333333,-96.98078,5.0,5.8,177,990.87,1.7,59,6.10,0.0,1018.80,360.0
2019-05-10 13:00,50.6304483333333,-96.9807783333333,4.2,4.9,170,990.86,2.0,62,6.13,0.0,1018.77,286.8
2019-05-10 13:10,50.6304483333333,-96.9807766666667,5.1,5.8,177,990.81,2.4,58,6.05,0.0,1018.68,286.8
2019-05-10 13:20,50.63045,-96.9807766666667,5.6,6.9,178,990.76,3.2,53,5.81,0.0,1018.59,286.8
2019-05-10 13:30,50.6304516666667,-96.9807683333333,5.4,7.3,168,990.76,3.8,52,5.66,0.0,1018.53,286.8
2019-05-10 13:40,50.6304516666667,-96.980765,5.9,8.0,140,990.72,3.3,64,5.58,0.0,1018.49,286.8
2019-05-10 13:50,50.63045,-96.9807633333333,6.8,8.0,147,990.63,3.1,65,5.62,0.0,1018.40,286.8
2019-05-10 14:00,50.6304133333333,-96.980725,7.7,8.3,148,990.59,2.7,68,5.52,0.0,1018.36,139.7
2019-05-10 14:10,50.6304316666667,-96.980765,7.5,8.8,148,990.52,2.4,74,5.31,0.0,1018.29,139.7
2019-05-10 14:20,50.6304583333333,-96.980775,8.6,9.1,142,990.41,2.6,75,5.40,0.0,1018.16,139.7
2019-05-10 14:30,50.6304683333333,-96.98077,8.3,11.3,133,990.30,3.0,77,5.60,0.0,1018.02,139.7
2019-05-10 14:40,50.63045,-96.980765,9.3,12.0,130,990.22,3.5,74,5.58,0.0,1017.89,139.7
2019-05-10 14:50,50.6304533333333,-96.9807616666667,7.9,11.1,133,990.15,3.5,74,5.45,0.0,1017.79,139.7
2019-05-10 15:00,50.630455,-96.980765,7.5,10.5,128,990.01,3.7,73,5.25,0.0,1017.62,360.0
2019-05-10 15:10,50.630455,-96.9807633333333,8.6,10.8,131,989.88,4.0,74,5.04,0.0,1017.43,360.0
2019-05-10 15:20,50.6304533333333,-96.980765,8.8,11.5,134,989.74,4.1,72,4.93,0.0,1017.25,360.0
2019-05-10 15:30,50.6304866666667,-96.9807716666667,9.1,11.3,130,989.66,4.7,69,4.84,0.0,1017.17,360.0
2019-05-10 15:40,50.630465,-96.9807733333333,9.7,11.8,124,989.59,4.6,70,4.83,0.0,1017.11,360.0
2019-05-10 15:50,50.630465,-96.9807716666667,11.9,13.4,125,989.47,4.7,69,4.87,0.0,1017.00,360.0
2019-05-10 16:00,50.6304633333333,-96.9807733333333,13.0,15.5,121,989.29,5.1,65,4.92,0.0,1016.81,3.2
2019-05-10 16:10,50.6304616666667,-96.980775,12.3,14.4,121,989.19,5.4,64,4.93,0.0,1016.68,3.2
2019-05-10 16:20,50.6304583333333,-96.9807766666667,13.2,15.6,117,989.07,5.4,65,4.97,0.0,1016.54,3.2
2019-05-10 16:30,50.630455,-96.980775,13.1,17.1,116,989.01,5.5,64,4.96,0.0,1016.45,3.2
2019-05-10 16:40,50.6304216666667,-96.9807533333333,12.7,15.1,120,988.92,5.5,62,4.98,0.0,1016.36,3.2
2019-05-10 16:50,50.63043,-96.9807666666667,13.4,15.1,113,988.83,5.5,63,5.06,0.0,1016.25,3.2
2019-05-10 17:00,50.6304316666667,-96.9807666666667,12.8,15.6,110,988.70,5.8,61,5.15,0.0,1016.09,305.8
2019-05-10 17:10,50.6304266666667,-96.98077,16.0,21.0,113,988.48,5.8,63,5.18,0.0,1015.86,305.8
2019-05-10 17:20,50.6304316666667,-96.9807733333333,14.6,16.3,110,988.48,5.9,62,5.21,0.0,1015.82,305.8
2019-05-10 17:30,50.6304333333333,-96.9807783333333,14.5,19.5,113,988.38,6.1,59,5.29,0.0,1015.72,305.8
2019-05-10 17:40,50.6304333333333,-96.9807783333333,11.2,13.6,108,988.33,6.1,58,5.35,0.0,1015.66,305.8
2019-05-10 17:50,50.6304333333333,-96.9807833333333,13.0,17.7,116,988.17,6.8,51,5.38,0.0,1015.44,305.8
2019-05-10 18:00,50.6304333333333,-96.9807816666667,11.8,15.5,113,988.07,8.1,47,5.40,0.0,1015.26,217.7
2019-05-10 18:10,50.6304316666667,-96.9807816666667,14.0,16.7,105,987.90,7.1,53,5.41,0.0,1015.14,217.7
2019-05-10 18:20,50.6304316666667,-96.9807816666667,11.6,18.6,108,987.88,7.5,52,5.42,0.0,1015.09,217.7
2019-05-10 18:30,50.6304316666667,-96.98078,8.7,13.3,101,987.79,7.4,53,5.44,0.0,1015.00,217.7
2019-05-10 18:40,50.6304316666667,-96.98078,13.1,17.3,106,987.69,6.9,55,5.46,0.0,1014.92,217.7
2019-05-10 18:50,50.630455,-96.9807866666667,10.6,12.1,98,987.59,6.3,60,5.48,0.0,1014.83,217.7
2019-05-10 19:00,50.63043,-96.98077,9.4,13.4,109,987.48,5.7,62,5.51,0.0,1014.75,360.0
2019-05-10 19:10,50.6304333333333,-96.98077,10.2,12.7,99,987.35,6.6,59,5.53,0.0,1014.56,360.0
2019-05-10 19:20,50.6304333333333,-96.9807733333333,4.0,11.8,144,987.34,6.5,56,5.56,0.0,1014.56,360.0
2019-05-10 19:30,50.6304383333333,-96.980775,13.7,16.0,103,987.14,7.9,45,5.58,0.0,1014.28,360.0
2019-05-10 19:40,50.6304383333333,-96.9807733333333,9.2,12.0,94,987.06,7.8,51,5.59,0.0,1014.17,360.0
2019-05-10 19:50,50.6304383333333,-96.9807716666667,7.4,9.8,88,986.83,6.5,59,5.61,0.0,1013.93,360.0
2019-05-10 20:00,50.6304383333333,-96.98077,11.3,13.7,103,986.74,6.6,57,5.62,0.0,1013.89,360.0
2019-05-10 20:10,50.6304366666667,-96.9807683333333,8.6,12.5,90,986.66,7.2,57,5.63,0.0,1013.75,360.0
2019-05-10 20:20,50.6304316666667,-96.9807683333333,9.6,13.5,108,986.56,6.4,60,5.64,0.0,1013.70,360.0
2019-05-10 20:30,50.6304316666667,-96.9807716666667,13.6,15.5,106,986.42,7.0,52,5.63,0.0,1013.54,360.0
2019-05-10 20:40,50.630435,-96.9807766666667,13.4,15.8,97,986.32,7.8,51,5.63,0.0,1013.43,360.0
2019-05-10 20:50,50.630425,-96.980745,9.4,12.7,104,986.27,7.0,60,5.65,0.0,1013.44,360.0
2019-05-10 21:00,50.63041,-96.980795,12.0,13.1,101,986.09,6.6,60,5.67,0.0,1013.24,194.5
2019-05-10 21:10,50.6304266666667,-96.9807816666667,9.8,13.8,92,985.96,7.2,52,5.67,0.0,1013.08,194.5
2019-05-10 21:20,50.63044,-96.9807633333333,9.5,10.6,88,985.79,7.0,55,5.69,0.0,1012.85,194.5
2019-05-10 21:30,50.6304383333333,-96.9807666666667,10.2,12.0,87,985.59,6.7,56,5.69,0.0,1012.66,194.5
2019-05-10 21:40,50.6304416666667,-96.9807666666667,11.0,13.1,89,985.43,7.0,52,5.69,0.0,1012.55,194.5
2019-05-10 21:50,50.6304416666667,-96.9807666666667,11.7,14.3,83,985.25,7.4,49,5.70,0.0,1012.34,194.5
2019-05-10 22:00,50.6304433333333,-96.98077,10.9,13.1,84,985.10,7.1,51,5.72,0.0,1012.17,18.9
2019-05-10 22:10,50.6304433333333,-96.9807716666667,11.2,13.1,82,984.90,6.9,52,5.74,0.0,1012.01,18.9
2019-05-10 22:20,50.6304333333333,-96.980775,11.6,13.6,86,984.77,6.9,51,5.77,0.0,1011.85,18.9
2019-05-10 22:30,50.630435,-96.980775,13.3,15.7,81,984.62,7.7,46,5.79,0.0,1011.62,18.9
2019-05-10 22:40,50.6304333333333,-96.980775,10.8,13.0,81,984.60,7.3,49,5.79,0.0,1011.66,18.9
2019-05-10 22:50,50.6304366666667,-96.9807733333333,9.8,12.1,81,984.45,7.2,51,5.79,0.0,1011.53,18.9
2019-05-10 23:00,50.630435,-96.9807716666667,8.4,10.7,82,984.42,7.3,49,5.79,0.0,1011.46,192.6
2019-05-10 23:10,50.6304433333333,-96.9807833333333,7.8,14.2,101,984.34,7.5,50,5.78,0.0,1011.38,192.6
2019-05-10 23:20,50.6304433333333,-96.9807883333333,13.4,15.8,94,984.13,7.4,48,5.78,0.0,1011.17,192.6
2019-05-10 23:30,50.6304416666667,-96.980785,9.5,13.9,92,984.07,7.9,44,5.79,0.0,1011.08,192.6
2019-05-10 23:40,50.63044,-96.980785,10.2,12.3,95,983.95,7.7,49,5.85,0.0,1010.94,192.6
